AEA06 LEMD-GCLA

Flight info

Callsign AEA06
Flight time N/A
Altitude 31000
Route CCS DCT ELVAR/N0465F330 DCT BEXAL/N0462F350 UN866 KONBA
Aircraft B738/M-SDE2E3FGHIRWXY/LB1

Departure

Time 2026-05-05 11:09
Airport Adolfo Suárez Madrid–Barajas Airport (LEMD)

Arrival

Time N/A
Airport La Palma Airport (GCLA)
Time Latitude Longitude Altitude Speed Heading
2026-05-05 10:59 40.47307 -3.57034 1988 ft 0 kts 244°
2026-05-05 11:01 40.47308 -3.57032 1988 ft 2 kts 244°
2026-05-05 11:01 40.47318 -3.57001 1988 ft 4 kts 250°
2026-05-05 11:01 40.47327 -3.56972 1987 ft 3 kts 244°
2026-05-05 11:02 40.47331 -3.56946 1986 ft 4 kts 305°
2026-05-05 11:02 40.47311 -3.56925 1989 ft 4 kts 337°
2026-05-05 11:02 40.47297 -3.56918 1989 ft 1 kts 344°
2026-05-05 11:04 40.47313 -3.56924 1987 ft 7 kts 342°
2026-05-05 11:04 40.47387 -3.56992 1989 ft 19 kts 321°
2026-05-05 11:05 40.47472 -3.57134 1992 ft 22 kts 304°
2026-05-05 11:05 40.47579 -3.57173 1995 ft 15 kts 45°
2026-05-05 11:05 40.47666 -3.57148 1997 ft 14 kts 323°
2026-05-05 11:05 40.47764 -3.57253 2000 ft 22 kts 322°
2026-05-05 11:06 40.47890 -3.57379 2001 ft 23 kts 322°
2026-05-05 11:06 40.48015 -3.57512 2001 ft 24 kts 321°
2026-05-05 11:06 40.48153 -3.57643 1996 ft 26 kts 321°
2026-05-05 11:06 40.48310 -3.57805 1991 ft 31 kts 322°
2026-05-05 11:07 40.48497 -3.57972 1997 ft 32 kts 328°
2026-05-05 11:07 40.48702 -3.58048 2002 ft 32 kts 360°
2026-05-05 11:07 40.48859 -3.57987 2000 ft 19 kts 74°
2026-05-05 11:07 40.48966 -3.57930 1998 ft 19 kts 356°
2026-05-05 11:08 40.49107 -3.57929 1998 ft 21 kts
2026-05-05 11:08 40.49178 -3.57834 1994 ft 17 kts 99°
2026-05-05 11:08 40.49172 -3.57634 1988 ft 27 kts 79°
2026-05-05 11:08 40.49293 -3.57451 1982 ft 30 kts
2026-05-05 11:09 40.49741 -3.57457 1986 ft 100 kts 359°
2026-05-05 11:09 40.50660 -3.57470 1995 ft 162 kts 358°
2026-05-05 11:09 40.51901 -3.57444 2349 ft 189 kts 359°
2026-05-05 11:09 40.53301 -3.57363 2910 ft 210 kts
2026-05-05 11:10 40.54739 -3.57252 3855 ft 207 kts 357°
2026-05-05 11:10 40.56222 -3.57300 4206 ft 225 kts 355°
2026-05-05 11:10 40.57834 -3.57385 4672 ft 234 kts 355°
2026-05-05 11:10 40.59473 -3.57449 5255 ft 237 kts 355°
2026-05-05 11:11 40.61094 -3.57000 5820 ft 243 kts 22°
2026-05-05 11:11 40.62627 -3.56017 6427 ft 247 kts 24°
2026-05-05 11:11 40.64282 -3.55299 6759 ft 262 kts 359°
2026-05-05 11:11 40.66086 -3.55797 7182 ft 269 kts 341°
2026-05-05 11:12 40.67986 -3.56005 7788 ft 280 kts
2026-05-05 11:12 40.69908 -3.55846 8539 ft 281 kts 360°
2026-05-05 11:12 40.71877 -3.55784 9265 ft 285 kts 358°
2026-05-05 11:12 40.73871 -3.55766 9980 ft 289 kts 358°
2026-05-05 11:13 40.75891 -3.55946 10432 ft 299 kts 342°
2026-05-05 11:13 40.77748 -3.57295 10611 ft 314 kts 313°
2026-05-05 11:13 40.78937 -3.59758 10789 ft 330 kts 286°
2026-05-05 11:13 40.79101 -3.62843 10953 ft 349 kts 261°
2026-05-05 11:14 40.78583 -3.66054 11145 ft 366 kts 256°
2026-05-05 11:14 40.77939 -3.69362 11530 ft 377 kts 256°
2026-05-05 11:14 40.77269 -3.72740 12077 ft 382 kts 256°
2026-05-05 11:14 40.76612 -3.76132 12807 ft 382 kts 256°
2026-05-05 11:15 40.75970 -3.79558 13443 ft 386 kts 257°
2026-05-05 11:15 40.75343 -3.83010 14033 ft 388 kts 257°
2026-05-05 11:15 40.74721 -3.86480 14644 ft 389 kts 257°
2026-05-05 11:15 40.74311 -3.88784 15034 ft 391 kts 257°
2026-05-05 11:16 40.73692 -3.92288 15608 ft 392 kts 257°
2026-05-05 11:16 40.72868 -3.96954 16311 ft 396 kts 257°
2026-05-05 11:16 40.72242 -4.00502 16861 ft 398 kts 257°
2026-05-05 11:16 40.71816 -4.02909 17224 ft 400 kts 257°
2026-05-05 11:17 40.71188 -4.06454 17745 ft 402 kts 257°
2026-05-05 11:17 40.70549 -4.10050 18280 ft 404 kts 257°
2026-05-05 11:17 40.69904 -4.13676 18707 ft 406 kts 257°
2026-05-05 11:17 40.69256 -4.17306 19143 ft 408 kts 257°
2026-05-05 11:18 40.68603 -4.20957 19629 ft 409 kts 257°
2026-05-05 11:18 40.67948 -4.24613 20068 ft 411 kts 257°
2026-05-05 11:18 40.67290 -4.28285 20503 ft 413 kts 257°
2026-05-05 11:18 40.66627 -4.31971 20927 ft 414 kts 257°
2026-05-05 11:19 40.65959 -4.35680 21349 ft 416 kts 257°
2026-05-05 11:19 40.65288 -4.39401 21752 ft 418 kts 257°
2026-05-05 11:19 40.64612 -4.43139 22147 ft 420 kts 257°
2026-05-05 11:19 40.63934 -4.46887 22551 ft 422 kts 257°
2026-05-05 11:20 40.63250 -4.50652 22930 ft 423 kts 257°